Location: Baix
(44.7118°N, 4.7648°E)
Time: 15:58:30
(UTC+00:00)

Spot 4 Rocket - Pass Details

Date: 07 August 2020
Orbit: 776 x 781 km, 98.7° (Epoch: 22 September)

Event Time Altitude Azimuth Distance (km) Brightness Sun altitude
Rises 03:10:55 0° 11° (N) 3,280 8.1 -13.4°
Reaches altitude 10° 03:13:15 10° 9° (N) 2,347 7.2 -13.1°
Maximum altitude 03:18:22 67° 288° (WNW) 850 4.1 -12.3°
Enters shadow 03:22:59 13° 207° (SSW) 2,138 5.8 -11.7°
